[[{"header":{"parameterUnit":"m.s-1","parameterCategory":1,"la1":30.2991,"la2":30.254,"lo1":-89.0895,"lo2":-89.0444,"dy":0.0017,"dx":0.0017,"nx":28,"ny":28,"refTime":"2024-08-28T21:00:00:Z","depth":0,"parameterNumber":2,"parameterNumberName":"U-component_of_WINDS"},"data":[0,0,0,0,0,0,0,0,0,0,0,0,0,0,0,0,0,0,0,0,0,0,0,0,0,0,0,0,0,0,0,0,0,0,0,0,0,0,0,0,0,0,0,0,0,0,0,0,0,0,0,0,0,0,0,0,0,0,-5.789,-5.789,0,-5.7905,-5.7905,-5.7905,-5.7833,-5.7831,-5.7828,-5.7826,-5.784,-5.7842,-5.7844,0,0,0,0,0,0,0,0,0,0,0,0,0,-5.7796,-5.7799,-5.789,-5.789,-5.789,-5.7905,-5.7905,-5.7905,-5.7833,-5.783,-5.7828,-5.7826,-5.7839,-5.7842,-5.7845,0,0,0,0,0,0,0,0,0,0,0,0,0,-5.7827,-5.7799,-5.789,-5.7856,-5.7853,-5.7905,-5.7905,-5.7905,-5.7834,-5.783,-5.7827,-5.7824,-5.7838,-5.7842,-5.7845,-5.7929,0,0,-5.7856,-5.7857,0,0,0,0,0,0,0,0,-5.7825,-5.783,-5.7861,-5.7858,-5.7855,-5.7864,-5.7877,-5.7913,-5.7834,-5.7841,-5.7826,-5.7823,-5.785,-5.7852,-5.7862,-5.793,-5.793,-5.7856,-5.7858,-5.7859,-5.786,0,0,0,0,0,0,0,-5.7823,-5.7829,-5.7896,-5.7861,-5.7858,-5.7839,-5.784,-5.7884,-5.7863,-5.784,-5.7835,-5.7838,-5.7848,-5.7859,-5.7862,-5.7931,-5.7856,-5.7859,-5.7861,-5.7862,-5.8068,-5.8071,0,0,0,0,0,0,-5.7826,-5.7828,-5.7895,-5.7896,-5.7832,-5.7844,-5.7845,-5.7864,-5.7862,-5.7859,-5.784,-5.7834,-5.7855,-5.7858,-5.7862,-5.7959,-5.7859,-5.7863,-5.7865,-5.8064,-5.8068,-5.8072,0,0,0,0,0,0,-5.7824,-5.7833,-5.7895,-5.7861,-5.7867,-5.7849,-5.7871,-5.7866,-5.7877,-5.7863,-5.7858,-5.7855,-5.7852,-5.7857,-5.7913,-5.7959,-5.7864,-5.7867,-5.806,-5.8066,-5.807,-5.8156,0,0,0,0,0,0,-5.7822,-5.7832,-5.7865,-5.7862,-5.7869,-5.7946,-5.7874,-5.7869,-5.7883,-5.7875,-5.7875,-5.7872,-5.785,-5.7908,-5.7917,-5.7962,-5.787,-5.8056,-5.8063,-5.8069,-5.8149,-5.8163,-5.8176,0,0,0,0,0,-5.7819,-5.7888,-5.7867,-5.7875,-5.7909,-5.7949,-5.7953,-5.7926,-5.7887,-5.7919,-5.791,-5.7872,-5.7953,-5.7915,-5.7923,-5.7971,-5.8053,-5.8061,-5.8068,-5.8143,-5.8161,-5.8175,0,0,0,0,0,0,-5.7895,-5.7887,-5.7863,-5.7934,-5.7943,-5.7937,-5.7976,-5.7946,-5.7966,-5.7957,-5.7923,-5.7924,-5.7985,-5.7984,-5.7941,-5.8052,-5.7996,-5.8006,-5.805,-5.8067,-5.808,-5.8078,-5.7873,0,0,0,0,0,-5.792,-5.7954,-5.7945,-5.8008,-5.8014,-5.7994,-5.801,-5.799,-5.7997,-5.8,-5.7995,-5.8003,-5.803,-5.8049,-5.8073,-5.8149,-5.8147,-5.8186,-5.82,-5.8211,-5.8219,-5.8258,-5.8274,-5.8097,-5.8097,-5.8097,0,0,-5.7972,-5.7972,-5.7995,-5.8023,-5.8027,-5.8062,-5.7998,-5.8037,-5.8062,-5.8006,-5.8058,-5.8055,-5.8062,-5.8128,-5.8157,-5.8129,-5.8268,-5.822,-5.8229,-5.8231,-5.8267,-5.8284,-5.8299,-5.8102,-5.8101,-5.81,0,0,-5.8084,-5.8088,-5.8141,-5.8147,-5.8155,-5.8142,-5.8155,-5.8154,-5.8149,-5.8202,-5.816,-5.819,-5.8237,-5.8244,-5.8253,-5.8369,-5.8335,-5.8379,-5.8447,-5.8486,-5.85,-5.8512,-5.8552,-5.8567,-5.8387,-5.8387,-5.8387,0,-5.8147,-5.8199,-5.8171,-5.8214,-5.8227,-5.8179,-5.8231,-5.8238,-5.8254,-5.8264,-5.8232,-5.8291,-5.8293,-5.8359,-5.8388,-5.8398,-5.841,-5.8377,-5.85,-5.8512,-5.8523,-5.8561,-5.8576,-5.8392,-5.8392,-5.8391,-5.8391,0,-5.8275,-5.8312,-5.8353,-5.837,-5.8388,-5.8435,-5.8414,-5.8436,-5.8414,-5.8404,-5.8458,-5.8458,-5.8481,-5.8496,-5.8475,-5.856,-5.8542,-5.8506,-5.8449,-5.8546,-5.858,-5.8594,-5.84,-5.8398,-5.8396,-5.8395,0,0,-5.8433,-5.8436,-5.8451,-5.8458,-5.8464,-5.8491,-5.8536,-5.856,-5.8578,-5.8591,-5.8627,-5.867,-5.8637,-5.8648,-5.8627,-5.8661,-5.8752,-5.8621,-5.8621,-5.8644,-5.8843,-5.8868,-5.8886,-5.873,-5.8733,-5.8735,-5.8842,0,-5.8541,-5.8619,-5.8596,-5.8673,-5.8706,-5.8662,-5.8701,-5.8709,-5.8701,-5.8727,-5.8719,-5.8749,-5.8704,-5.871,-5.8742,-5.8734,-5.8791,-5.8726,-5.8762,-5.8763,-5.8759,-5.8904,-5.893,-5.9031,-5.8856,-5.8858,-5.886,0,-5.8677,-5.8696,-5.8777,-5.8778,-5.8791,-5.8826,-5.8846,-5.8872,-5.888,-5.8872,-5.8885,-5.8858,-5.8901,-5.8846,-5.8905,-5.8862,-5.8875,-5.8874,-5.8877,-5.8877,-5.8815,-5.8906,-5.9063,-5.9077,-5.8881,-5.8879,-5.8878,0,-5.8782,-5.8828,-5.8882,-5.889,-5.8892,-5.8918,-5.892,-5.8925,-5.8941,-5.8958,-5.8968,-5.899,-5.9002,-5.902,-5.8999,-5.8961,-5.906,-5.9004,-5.9053,-5.9054,-5.9074,-5.9072,-5.9233,-5.9087,-5.9087,-5.9087,-5.9087,0,-5.8904,-5.8955,-5.8929,-5.8962,-5.9018,-5.8991,-5.9047,-5.9044,-5.9049,-5.908,-5.9044,-5.9074,-5.9045,-5.9073,-5.9057,-5.9107,-5.9113,-5.9107,-5.9102,-5.9109,-5.9109,-5.9115,-5.9107,-5.9091,-5.909,-5.9089,-5.9089,0,-5.9029,-5.9015,-5.907,-5.9069,-5.907,-5.911,-5.9109,-5.9139,-5.9129,-5.9169,-5.9177,-5.9162,-5.9192,-5.9174,-5.9205,-5.9194,-5.9259,-5.9245,-5.9256,-5.9252,-5.9301,-5.9296,-5.9469,-5.949,-5.9333,-5.9335,-5.9336,0,-5.9107,-5.9145,-5.9148,-5.9166,-5.9171,-5.9202,-5.9218,-5.9194,-5.9212,-5.9224,-5.9253,-5.928,-5.93,-5.935,-5.9342,-5.9365,-5.935,-5.9409,-5.9353,-5.9359,-5.9348,-5.9345,-5.9348,-5.942,-5.9421,-5.9423,-5.9424,0,-5.9245,-5.9236,-5.9261,-5.9284,-5.9304,-5.932,-5.9334,-5.9351,-5.9327,-5.9349,-5.938,-5.9396,-5.9428,-5.9454,-5.9474,-5.9476,-5.9446,-5.9443,-5.9455,-5.9461,-5.9465,-5.9461,-5.9284,-5.9438,-5.9436,-5.9435,-5.9435,-5.9434,-5.9347,-5.9378,-5.9386,-5.9414,-5.9422,-5.9436,-5.9464,-5.9459,-5.9484,-5.9508,-5.9493,-5.9529,-5.9536,-5.9559,-5.9565,-5.9592,-5.9568,-5.9586,-5.959,-5.9594,-5.96,-5.9463,-5.9596,-5.9595,-5.9595,-5.9595,-5.9594,0,-5.9482,-5.9484,-5.9511,-5.9531,-5.9554,-5.9526,-5.954,-5.956,-5.9592,-5.9602,-5.9623,-5.9658,-5.9684,-5.9679,-5.9702,-5.9725,-5.9712,-5.9732,-5.9728,-5.9729,-5.9622,-5.9607,-5.9742,-5.9742,-5.9742,-5.9742,-5.9742,-5.9742,-5.9554,-5.9605,-5.9597,-5.9652,-5.9654,-5.969,-5.97,-5.9712,-5.9719,-5.976,-5.9782,-5.9779,-5.9782,-5.9805,-5.9828,-5.9826,-5.9835,-5.986,-5.9852,-5.9751,-5.9737,-5.9722,-5.9709,-5.9863,-5.9863,-5.9956,-5.9957,-5.9958]},{"header":{"parameterUnit":"m.s-1","parameterCategory":1,"la1":30.2991,"la2":30.254,"lo1":-89.0895,"lo2":-89.0444,"dy":0.0017,"dx":0.0017,"nx":28,"ny":28,"refTime":"2024-08-28T21:00:00:Z","depth":0,"parameterNumber":3,"parameterNumberName":"V-component_of_WINDS"},"data":[0,0,0,0,0,0,0,0,0,0,0,0,0,0,0,0,0,0,0,0,0,0,0,0,0,0,0,0,0,0,0,0,0,0,0,0,0,0,0,0,0,0,0,0,0,0,0,0,0,0,0,0,0,0,0,0,0,0,1.0147,1.0148,0,1.0265,1.0267,1.0268,1.0341,1.0341,1.0342,1.0342,1.0463,1.0466,1.0469,0,0,0,0,0,0,0,0,0,0,0,0,0,0.9985,0.9988,1.0146,1.0148,1.0149,1.0265,1.0267,1.0268,1.0341,1.0341,1.0342,1.0342,1.0462,1.0466,1.0469,0,0,0,0,0,0,0,0,0,0,0,0,0,1.0074,0.9988,1.0146,1.02,1.0206,1.0265,1.0267,1.0269,1.0341,1.0342,1.0342,1.0343,1.0461,1.0465,1.047,1.0484,0,0,1.0483,1.0485,0,0,0,0,0,0,0,0,1.0069,1.008,1.019,1.0196,1.0203,1.0289,1.0254,1.0341,1.0341,1.029,1.0342,1.0343,1.0405,1.0414,1.0435,1.049,1.0495,1.0483,1.0486,1.0488,1.0489,0,0,0,0,0,0,0,1.0063,1.0076,1.0193,1.0192,1.02,1.0219,1.0232,1.0271,1.0342,1.0294,1.03,1.0313,1.0408,1.043,1.0438,1.0497,1.0483,1.0487,1.0489,1.0491,1.0574,1.0574,0,0,0,0,0,0,1.0048,1.007,1.019,1.0197,1.0136,1.0221,1.0236,1.0261,1.0342,1.0355,1.0312,1.0316,1.0423,1.0433,1.0443,1.0468,1.0488,1.0492,1.0494,1.0575,1.0574,1.0574,0,0,0,0,0,0,1.0044,1.0058,1.0185,1.0135,1.0153,1.0223,1.025,1.0263,1.0285,1.0356,1.0369,1.0321,1.0424,1.0437,1.0474,1.0473,1.0493,1.0497,1.0575,1.0575,1.0574,1.0516,0,0,0,0,0,0,1.004,1.0056,1.0062,1.0135,1.0155,1.0214,1.025,1.0265,1.0292,1.0298,1.0368,1.038,1.0425,1.0468,1.0479,1.0479,1.0501,1.0576,1.0575,1.0574,1.0518,1.0513,1.0509,0,0,0,0,0,1.0033,1.004,1.0062,1.0076,1.0164,1.0213,1.0225,1.0277,1.0292,1.0299,1.0345,1.0378,1.0471,1.0471,1.0484,1.0485,1.0576,1.0575,1.0574,1.052,1.0514,1.0509,0,0,0,0,0,0,0.9964,1.005,1.0076,1.0106,1.0152,1.0226,1.0236,1.0268,1.0311,1.0314,1.0377,1.0392,1.0424,1.0459,1.0457,1.0506,1.0528,1.0529,1.0482,1.0477,1.0472,1.0464,1.0504,0,0,0,0,0,0.9953,0.9986,1.0059,1.0079,1.0101,1.0164,1.0188,1.0224,1.0274,1.0294,1.0343,1.039,1.0431,1.0456,1.0497,1.0524,1.0541,1.0532,1.0527,1.0523,1.0524,1.0544,1.0541,1.0571,1.0571,1.0571,0,0,0.9929,0.998,0.9997,1.0066,1.0106,1.014,1.018,1.0213,1.0239,1.0299,1.0338,1.0376,1.0433,1.0466,1.0484,1.0496,1.052,1.0522,1.0518,1.0522,1.0543,1.054,1.0537,1.0571,1.0571,1.0571,0,0,0.9903,0.9944,0.9966,1.0006,1.0066,1.0109,1.0114,1.0184,1.0212,1.0252,1.0299,1.0331,1.0398,1.0438,1.0467,1.046,1.0493,1.0471,1.0448,1.0466,1.0464,1.0462,1.0461,1.046,1.0472,1.0472,1.0472,0,0.9865,0.9917,0.9973,1.0005,1.0035,1.0092,1.0116,1.0151,1.0222,1.0242,1.0255,1.0344,1.0386,1.0431,1.0429,1.045,1.046,1.0463,1.046,1.0459,1.0458,1.0458,1.0457,1.0469,1.0469,1.047,1.047,0,0.9869,0.9905,0.9916,0.9984,1.0015,1.0042,1.0104,1.0129,1.0163,1.0205,1.0247,1.03,1.0354,1.0368,1.04,1.0418,1.0424,1.0448,1.0471,1.0451,1.0452,1.0452,1.0465,1.0466,1.0467,1.0467,0,0,0.9801,0.9901,0.9904,0.9937,1.001,1.0039,1.007,1.0123,1.0145,1.0192,1.0221,1.0279,1.0302,1.0335,1.0373,1.0389,1.0383,1.0412,1.0414,1.0406,1.0408,1.039,1.0389,1.0406,1.0406,1.0406,1.0404,0,0.9786,0.9844,0.9897,0.9937,0.9972,1.0028,1.0055,1.0103,1.0144,1.018,1.0225,1.0265,1.0292,1.0313,1.0332,1.0379,1.0384,1.038,1.0434,1.0435,1.0418,1.0389,1.037,1.0365,1.0404,1.0404,1.0404,0,0.9776,0.9823,0.9866,0.9938,0.9954,0.9978,1.0033,1.0066,1.0123,1.0152,1.019,1.0231,1.0268,1.0288,1.0341,1.0337,1.0363,1.039,1.0391,1.0398,1.0418,1.0397,1.0365,1.0364,1.0405,1.0405,1.0405,0,0.9724,0.9797,0.9833,0.9859,0.9943,0.9959,0.9995,1.0052,1.0082,1.013,1.0151,1.0202,1.0231,1.027,1.0325,1.0334,1.0373,1.0397,1.0399,1.0398,1.0405,1.0403,1.0377,1.042,1.042,1.042,1.042,0,0.9702,0.9726,0.9811,0.9833,0.9864,0.9925,0.9953,0.9994,1.0045,1.0077,1.0129,1.0158,1.0228,1.0266,1.0309,1.0348,1.036,1.0385,1.0397,1.0381,1.0378,1.0399,1.0401,1.0419,1.0419,1.042,1.042,0,0.9648,0.9705,0.9749,0.9826,0.9846,0.9865,0.9932,0.9956,1.0,1.0041,1.0054,1.0123,1.0171,1.023,1.0296,1.0326,1.0361,1.0377,1.0341,1.0348,1.0348,1.0347,1.0334,1.0336,1.0376,1.0375,1.0375,0,0.963,0.9651,0.9731,0.9757,0.9791,0.9831,0.9863,0.9925,0.9955,1.0023,1.004,1.0092,1.0137,1.0211,1.0268,1.032,1.0339,1.0331,1.0347,1.0332,1.0341,1.0339,1.0343,1.0327,1.0326,1.0325,1.0325,0,0.9594,0.9622,0.9665,0.9719,0.9755,0.9801,0.9848,0.9866,0.9938,0.9971,1.0021,1.0056,1.0125,1.0177,1.0236,1.0275,1.0312,1.032,1.0323,1.0308,1.0287,1.03,1.0331,1.0319,1.032,1.032,1.0321,1.0321,0.9559,0.9581,0.9641,0.9688,0.9731,0.9775,0.9803,0.9852,0.9894,0.9956,0.999,1.004,1.0099,1.0183,1.0221,1.0261,1.0275,1.0279,1.0281,1.0281,1.0277,1.028,1.0272,1.0272,1.0273,1.0273,1.0273,0,0.9526,0.9569,0.9611,0.9677,0.9715,0.9748,0.9803,0.9832,0.9876,0.9928,0.9972,1.0031,1.0082,1.0144,1.02,1.0221,1.024,1.0233,1.0233,1.0242,1.0261,1.0253,1.0217,1.0217,1.0217,1.0217,1.0217,1.0217,0.9514,0.9553,0.9589,0.9651,0.9694,0.9743,0.9772,0.9814,0.9856,0.992,0.9963,1.0004,1.0061,1.0122,1.0171,1.0188,1.0207,1.0196,1.0218,1.0235,1.024,1.0244,1.0237,1.0199,1.0199,1.0195,1.0195,1.0195]}]]